COSMOS 2251 DEB, 34971

Orbit data source: Space-Track

COSMOS 2251 DEB, 34971 is space debris in LEO originally from a launch on Wed, 16 Jun 1993 UTC launched from the Plesetsk Missile And Space Complex (PKMTR). The debris from Iridium 33, an American commercial communications satellite, has been tracked extensively since its accidental collision with the defunct Russian satellite Cosmos 2251 in 2009. This event, occurring at high speed in low Earth orbit (LEO), generated thousands of pieces of space debris, significantly increasing the risk of further collisions. The Iridium 33 debris cloud has impacted space traffic management and orbital debris mitigation strategies, making it a subject of ongoing study in space situational awareness.

Loading next visibility...
Identifier
34971, 1993-036AFA
Orbit
LEO
Country
Flag of CISCIS
Related business
Manufacturer
Unknown
Mission
Spacecraft
Bus & Motor
Unknown
Mass
Unknown
Launch date (UTC)
1993-06-16 (33 years ago)
Launch vehicle
Unknown
Launch site
Plesetsk Missile And Space Complex (PKMTR)
Object type
Payload
Rocket body
Debris
Shape & HBR
Unknown shape, 0.1 m
Radar Cross Section
Small (<0.1 m²)

Expand to show TLE details & history
Last TLE update: 2 days ago

TLE from 2 days ago
0 COSMOS 2251 DEB
1 34971U 93036AFA 26143.28276013  .00000537  00000-0  12514-3 0  9991
2 34971  73.9782 337.7356 0069875 164.8470  11.6200 14.55893341685238
Epoch: 2026-05-23T06:47Z
TLE epoch observation values (Epoch: 2026-05-23T06:47:10.475Z)
Latitude
3.14692°
Longitude
174.14075°
Altitude
660.26 km
Speed
7.553 km/s
True Right ascension
10h 27m 20s
True Declination
3° 07' 40"
Sunlit
Object was in daylight at epoch
Visualization orbit readout
Latitude
Unknown
Longitude
Unknown
Altitude
Unknown
Speed
Unknown
Apparent Right ascension
Unknown
Apparent Declination
Unknown
Sunlit
N/A
Visualization observer readout
Local Sidereal Time
14:45:50
Azimuth
Unknown
Elevation
Unknown
Doppler factor
Unknown
Orbital elements
Apogee altitude
753.559 km
Perigee altitude
654.585 km
Semi-major axis
7,082.209 km
Eccentricity
0.00699
Inclination
73.9782°
RAAN
337.7356°
Arg. of periapsis
164.847°
True anomaly
11.78267°
Mean anomaly
11.62°
Eccentric anomaly
11.70119°
Mean motion
3.64158 °/min
Orbital period
98.86 mins
BSTAR
0.00012514
Loading maneuver chart data...
Computing Atmospheric mass density...

Documentation

Showing up to 5 results
|